Location: Newark
(9.1167°S, 159.8667°E)
Time: 18:43:21
(UTC+00:00)

Envisat - Pass Details

Date: 24 September 2019
Orbit: 764 x 766 km, 98.1° (Epoch: 22 October)

Event Time Altitude Azimuth Distance (km) Brightness Sun altitude
Rises 08:17:30 0° 176° (S) 3,240 6.2 -15.9°
Reaches altitude 10° 08:19:51 10° 180° (S) 2,310 5.5 -16.5°
Maximum altitude 08:24:49 55° 257° (WSW) 915 3.7 -17.7°
Drops below altitude 10° 08:29:46 10° 334° (NNW) 2,294 5.7 -18.9°
Sets 08:32:06 0° 339° (NNW) 3,215 6.5 -19.5°
